[[{"header":{"parameterUnit":"m.s-1","parameterCategory":1,"la1":30.2991,"la2":30.254,"lo1":-89.0895,"lo2":-89.0444,"dy":0.0017,"dx":0.0017,"nx":28,"ny":28,"refTime":"2024-08-07T21:00:00:Z","depth":0,"parameterNumber":2,"parameterNumberName":"U-component_of_WINDS"},"data":[0,0,0,0,0,0,0,0,0,0,0,0,0,0,0,0,0,0,0,0,0,0,0,0,0,0,0,0,0,0,0,0,0,0,0,0,0,0,0,0,0,0,0,0,0,0,0,0,0,0,0,0,0,0,0,0,0,0,1.6267,1.6267,0,1.6237,1.6237,1.6237,1.615,1.6148,1.6146,1.6144,1.6115,1.6116,1.6117,0,0,0,0,0,0,0,0,0,0,0,0,0,1.6252,1.6253,1.6267,1.6267,1.6267,1.6238,1.6237,1.6237,1.615,1.6148,1.6146,1.6143,1.6115,1.6116,1.6117,0,0,0,0,0,0,0,0,0,0,0,0,0,1.6245,1.6253,1.6268,1.622,1.6215,1.6238,1.6237,1.6237,1.6151,1.6148,1.6145,1.6142,1.6115,1.6116,1.6118,1.6184,0,0,1.6122,1.6123,0,0,0,0,0,0,0,0,1.6245,1.6245,1.6227,1.6223,1.6218,1.6194,1.6221,1.6219,1.6151,1.6175,1.6144,1.6141,1.6144,1.6143,1.6144,1.6183,1.6181,1.6122,1.6123,1.6124,1.6124,0,0,0,0,0,0,0,1.6246,1.6246,1.6256,1.6227,1.6222,1.6201,1.6197,1.622,1.6176,1.6173,1.6167,1.6164,1.6141,1.6142,1.6142,1.6181,1.6122,1.6124,1.6124,1.6125,1.6275,1.6278,0,0,0,0,0,0,1.6253,1.6247,1.6257,1.6255,1.6225,1.6204,1.6199,1.6205,1.6176,1.6168,1.6167,1.616,1.6141,1.6141,1.6141,1.6218,1.6124,1.6125,1.6126,1.6272,1.6276,1.6279,0,0,0,0,0,0,1.6253,1.6254,1.6258,1.6249,1.6248,1.6207,1.6215,1.6206,1.6207,1.6171,1.6163,1.6176,1.6139,1.6139,1.6174,1.6216,1.6126,1.6127,1.6268,1.6273,1.6278,1.6373,0,0,0,0,0,0,1.6253,1.6255,1.6279,1.625,1.6249,1.6291,1.6217,1.6207,1.621,1.6201,1.6177,1.6171,1.6137,1.6173,1.6176,1.6217,1.6128,1.6265,1.6271,1.6276,1.6366,1.6381,1.6393,0,0,0,0,0,1.6252,1.6307,1.6281,1.6282,1.6278,1.6294,1.6293,1.6252,1.6213,1.6238,1.6215,1.6172,1.6211,1.6177,1.618,1.6222,1.6262,1.6269,1.6276,1.636,1.6378,1.6393,0,0,0,0,0,0,1.6342,1.6302,1.6273,1.6319,1.6311,1.6279,1.6308,1.6272,1.6274,1.6266,1.6215,1.6211,1.6254,1.6241,1.6204,1.6286,1.6229,1.6237,1.6293,1.6309,1.6322,1.6325,1.613,0,0,0,0,0,1.6367,1.6383,1.6347,1.6392,1.6389,1.635,1.6355,1.6325,1.6314,1.631,1.6289,1.628,1.6291,1.6299,1.6306,1.6364,1.6358,1.6394,1.6407,1.6419,1.6426,1.6458,1.6474,1.6302,1.6302,1.6302,0,0,1.642,1.64,1.6412,1.641,1.6399,1.6417,1.6347,1.6369,1.6382,1.6313,1.6345,1.633,1.6318,1.6365,1.6385,1.6355,1.6473,1.6427,1.6437,1.6438,1.6467,1.6483,1.6498,1.6307,1.6306,1.6305,0,0,1.6524,1.651,1.6547,1.6538,1.6523,1.6497,1.6506,1.648,1.6467,1.6499,1.6448,1.6463,1.6482,1.6476,1.6475,1.658,1.6541,1.6583,1.6654,1.6685,1.6698,1.671,1.675,1.6764,1.6591,1.6591,1.6591,0,1.6592,1.6616,1.657,1.6596,1.6597,1.6535,1.6573,1.6566,1.6555,1.6558,1.6525,1.6549,1.6535,1.6581,1.6607,1.6608,1.6618,1.6586,1.67,1.6711,1.6722,1.6759,1.6773,1.6597,1.6596,1.6595,1.6595,0,1.67,1.6719,1.675,1.6741,1.6745,1.6777,1.6737,1.6748,1.6717,1.6695,1.6729,1.6711,1.6715,1.6723,1.6693,1.6766,1.6749,1.6709,1.6651,1.6744,1.6778,1.6792,1.6604,1.6602,1.6601,1.66,0,0,1.6861,1.6827,1.6839,1.6835,1.6815,1.6828,1.6858,1.6861,1.6872,1.6867,1.6891,1.6909,1.6873,1.6872,1.6841,1.6868,1.6955,1.6825,1.6824,1.6852,1.7036,1.7068,1.7085,1.6928,1.6931,1.6933,1.7038,0,1.6962,1.701,1.697,1.7026,1.7043,1.6985,1.7011,1.7002,1.6982,1.6995,1.6973,1.6987,1.6937,1.6937,1.6961,1.6939,1.6992,1.6931,1.6953,1.6954,1.6959,1.7102,1.7135,1.7235,1.7051,1.7053,1.7054,0,1.7086,1.7086,1.7144,1.7121,1.7127,1.7151,1.7152,1.7164,1.7154,1.7137,1.7138,1.71,1.7129,1.7072,1.7112,1.7071,1.7078,1.7069,1.7072,1.7074,1.7011,1.7109,1.7265,1.7281,1.7074,1.7073,1.7071,0,1.72,1.7215,1.7252,1.725,1.7224,1.7242,1.7233,1.7219,1.7224,1.7225,1.7228,1.7233,1.7236,1.7241,1.7206,1.7167,1.7252,1.7191,1.7241,1.7242,1.7262,1.7262,1.7423,1.7264,1.7263,1.7263,1.7263,0,1.7318,1.7356,1.7303,1.7326,1.7368,1.7322,1.7365,1.7349,1.7338,1.7358,1.7307,1.7327,1.7278,1.7294,1.7266,1.7305,1.7306,1.7295,1.7288,1.7301,1.7303,1.7306,1.7299,1.7267,1.7266,1.7265,1.7265,0,1.7452,1.7418,1.7455,1.7428,1.7422,1.7454,1.7431,1.7452,1.7429,1.7455,1.7458,1.7423,1.7438,1.7403,1.7414,1.7396,1.7451,1.7432,1.7455,1.745,1.7502,1.7499,1.7673,1.7695,1.752,1.7521,1.7523,0,1.7531,1.7559,1.7535,1.7544,1.7537,1.7553,1.7558,1.7515,1.7523,1.7514,1.7537,1.7548,1.7555,1.7582,1.7558,1.7567,1.7548,1.7609,1.7549,1.7562,1.7552,1.7551,1.7555,1.7622,1.7624,1.7626,1.7627,0,1.7674,1.7656,1.7665,1.767,1.7677,1.7678,1.7676,1.7687,1.7641,1.7653,1.7668,1.7674,1.7685,1.7697,1.77,1.7691,1.7653,1.7646,1.7658,1.7672,1.7686,1.7681,1.7491,1.7642,1.7641,1.764,1.7639,1.7638,1.7784,1.7807,1.7795,1.7807,1.7801,1.78,1.7819,1.7799,1.781,1.7816,1.779,1.7812,1.7802,1.7802,1.7797,1.7814,1.7787,1.7804,1.7809,1.7814,1.7824,1.7682,1.7814,1.7813,1.7813,1.7813,1.7812,0,1.7927,1.7916,1.7928,1.7926,1.7937,1.7898,1.7894,1.7906,1.7926,1.7919,1.7927,1.7946,1.7958,1.7935,1.7944,1.7963,1.7946,1.7967,1.7966,1.7965,1.7846,1.7836,1.7981,1.7981,1.7981,1.7981,1.7981,1.7981,1.8002,1.804,1.8021,1.8056,1.8044,1.8065,1.8066,1.8066,1.8061,1.8084,1.8094,1.8079,1.8066,1.8074,1.8085,1.8077,1.8084,1.8112,1.81,1.799,1.7973,1.7958,1.7947,1.8114,1.8114,1.8217,1.8218,1.8219]},{"header":{"parameterUnit":"m.s-1","parameterCategory":1,"la1":30.2991,"la2":30.254,"lo1":-89.0895,"lo2":-89.0444,"dy":0.0017,"dx":0.0017,"nx":28,"ny":28,"refTime":"2024-08-07T21:00:00:Z","depth":0,"parameterNumber":3,"parameterNumberName":"V-component_of_WINDS"},"data":[0,0,0,0,0,0,0,0,0,0,0,0,0,0,0,0,0,0,0,0,0,0,0,0,0,0,0,0,0,0,0,0,0,0,0,0,0,0,0,0,0,0,0,0,0,0,0,0,0,0,0,0,0,0,0,0,0,0,-3.1087,-3.1087,0,-3.1135,-3.1135,-3.1136,-3.1127,-3.1126,-3.1126,-3.1125,-3.117,-3.1172,-3.1174,0,0,0,0,0,0,0,0,0,0,0,0,0,-3.0987,-3.0989,-3.1087,-3.1088,-3.1088,-3.1134,-3.1135,-3.1136,-3.1127,-3.1126,-3.1125,-3.1124,-3.117,-3.1172,-3.1174,0,0,0,0,0,0,0,0,0,0,0,0,0,-3.1032,-3.099,-3.1087,-3.109,-3.109,-3.1134,-3.1135,-3.1136,-3.1128,-3.1126,-3.1125,-3.1124,-3.1169,-3.1172,-3.1175,-3.1218,0,0,-3.1184,-3.1185,0,0,0,0,0,0,0,0,-3.103,-3.1036,-3.1089,-3.109,-3.109,-3.1124,-3.1117,-3.1163,-3.1128,-3.1113,-3.1125,-3.1123,-3.1156,-3.116,-3.1171,-3.122,-3.1222,-3.1184,-3.1186,-3.1187,-3.1188,0,0,0,0,0,0,0,-3.1027,-3.1034,-3.1106,-3.1089,-3.109,-3.1088,-3.1093,-3.1126,-3.1141,-3.1115,-3.1114,-3.112,-3.1156,-3.1168,-3.1172,-3.1223,-3.1184,-3.1187,-3.1189,-3.119,-3.1312,-3.1313,0,0,0,0,0,0,-3.1023,-3.1031,-3.1104,-3.1107,-3.1057,-3.1091,-3.1096,-3.1114,-3.114,-3.1143,-3.1121,-3.1119,-3.1164,-3.1169,-3.1174,-3.1228,-3.1187,-3.119,-3.1192,-3.131,-3.1312,-3.1314,0,0,0,0,0,0,-3.1021,-3.103,-3.1102,-3.1069,-3.1078,-3.1094,-3.1114,-3.1116,-3.1128,-3.1145,-3.1148,-3.1131,-3.1163,-3.117,-3.1208,-3.1229,-3.1191,-3.1194,-3.1309,-3.1311,-3.1313,-3.1335,0,0,0,0,0,0,-3.1018,-3.1029,-3.1046,-3.107,-3.108,-3.1136,-3.1115,-3.1118,-3.1134,-3.1132,-3.1155,-3.1158,-3.1163,-3.1203,-3.1211,-3.1233,-3.1196,-3.1307,-3.131,-3.1312,-3.1333,-3.1338,-3.1343,0,0,0,0,0,-3.1015,-3.1049,-3.1047,-3.1055,-3.1101,-3.1137,-3.1143,-3.1149,-3.1136,-3.1153,-3.1164,-3.1157,-3.1226,-3.1207,-3.1216,-3.1239,-3.1306,-3.1309,-3.1312,-3.1331,-3.1337,-3.1343,0,0,0,0,0,0,-3.1025,-3.1052,-3.105,-3.1093,-3.1113,-3.1136,-3.1157,-3.1155,-3.1178,-3.1176,-3.118,-3.1186,-3.1225,-3.1235,-3.1215,-3.1283,-3.1264,-3.1269,-3.1275,-3.1281,-3.1286,-3.1283,-3.1199,0,0,0,0,0,-3.1033,-3.106,-3.1082,-3.1118,-3.1128,-3.1141,-3.1157,-3.116,-3.118,-3.1188,-3.1202,-3.1222,-3.1248,-3.1265,-3.129,-3.1334,-3.134,-3.1354,-3.1359,-3.1363,-3.1368,-3.1394,-3.1401,-3.1325,-3.1325,-3.1325,0,0,-3.1048,-3.1066,-3.1083,-3.1121,-3.1136,-3.1165,-3.1148,-3.1178,-3.12,-3.1192,-3.1231,-3.1242,-3.1264,-3.1306,-3.1325,-3.1316,-3.139,-3.1367,-3.137,-3.1373,-3.1398,-3.1405,-3.1412,-3.1327,-3.1326,-3.1326,0,0,-3.1091,-3.1107,-3.114,-3.1157,-3.1183,-3.1191,-3.1199,-3.1223,-3.1231,-3.1269,-3.1265,-3.129,-3.1334,-3.1351,-3.1365,-3.1418,-3.1413,-3.1425,-3.1451,-3.1477,-3.1483,-3.1488,-3.1508,-3.1515,-3.143,-3.143,-3.143,0,-3.1107,-3.1151,-3.1157,-3.1189,-3.1206,-3.1203,-3.1237,-3.1252,-3.1284,-3.1295,-3.1285,-3.1342,-3.1357,-3.1404,-3.1417,-3.1428,-3.1438,-3.1423,-3.1482,-3.1487,-3.1492,-3.1512,-3.1519,-3.1431,-3.1431,-3.1431,-3.1431,0,-3.117,-3.12,-3.1224,-3.1257,-3.1276,-3.1308,-3.132,-3.1339,-3.134,-3.135,-3.139,-3.1408,-3.1437,-3.1448,-3.1449,-3.1496,-3.149,-3.148,-3.1461,-3.1501,-3.1519,-3.1527,-3.1433,-3.1433,-3.1432,-3.1432,0,0,-3.122,-3.1258,-3.1267,-3.1283,-3.1311,-3.1334,-3.1367,-3.1397,-3.1414,-3.1436,-3.1464,-3.1503,-3.1495,-3.1512,-3.1514,-3.1537,-3.1579,-3.1525,-3.1525,-3.1536,-3.1634,-3.1643,-3.1651,-3.1576,-3.1578,-3.1579,-3.1633,0,-3.1267,-3.1326,-3.1334,-3.1386,-3.1415,-3.1414,-3.1442,-3.1463,-3.1473,-3.1499,-3.151,-3.1538,-3.1525,-3.1535,-3.1557,-3.157,-3.1599,-3.1565,-3.1603,-3.1604,-3.1599,-3.166,-3.1668,-3.1719,-3.164,-3.1641,-3.1642,0,-3.133,-3.1356,-3.1412,-3.1439,-3.1452,-3.1477,-3.1507,-3.1531,-3.1555,-3.1561,-3.1581,-3.1581,-3.1615,-3.1595,-3.1642,-3.1619,-3.1635,-3.1643,-3.1645,-3.165,-3.1626,-3.1668,-3.1735,-3.1743,-3.1653,-3.1652,-3.1652,0,-3.1363,-3.1412,-3.1453,-3.1466,-3.1498,-3.1517,-3.1531,-3.1553,-3.1572,-3.1597,-3.161,-3.1638,-3.1654,-3.1676,-3.1684,-3.1668,-3.1732,-3.1711,-3.1739,-3.1739,-3.1753,-3.1752,-3.1825,-3.1761,-3.176,-3.176,-3.176,0,-3.1416,-3.145,-3.1469,-3.1494,-3.1533,-3.1541,-3.158,-3.1593,-3.1613,-3.1641,-3.164,-3.1666,-3.1675,-3.1702,-3.1708,-3.1748,-3.1754,-3.1761,-3.1762,-3.1762,-3.1761,-3.1773,-3.177,-3.1762,-3.1762,-3.1761,-3.1761,0,-3.146,-3.1473,-3.1518,-3.1545,-3.1553,-3.1581,-3.1604,-3.1628,-3.1639,-3.1674,-3.1683,-3.17,-3.1732,-3.1742,-3.178,-3.1785,-3.1832,-3.1829,-3.1824,-3.1825,-3.1852,-3.185,-3.1936,-3.1948,-3.1875,-3.1876,-3.1876,0,-3.1493,-3.152,-3.1551,-3.1571,-3.1586,-3.1616,-3.1636,-3.1646,-3.1666,-3.1697,-3.1718,-3.175,-3.1777,-3.1828,-3.1843,-3.1873,-3.1872,-3.1901,-3.1877,-3.1876,-3.1875,-3.1874,-3.1877,-3.1905,-3.1906,-3.1907,-3.1907,0,-3.1551,-3.1557,-3.1586,-3.1619,-3.1643,-3.1668,-3.1692,-3.1708,-3.1721,-3.1744,-3.1778,-3.1799,-3.184,-3.1872,-3.1903,-3.1917,-3.1915,-3.1914,-3.1923,-3.1923,-3.192,-3.1924,-3.1838,-3.1913,-3.1912,-3.1912,-3.1911,-3.1911,-3.1592,-3.1617,-3.1644,-3.1677,-3.1697,-3.172,-3.1745,-3.176,-3.1789,-3.1824,-3.1828,-3.1865,-3.1889,-3.1931,-3.1946,-3.1975,-3.1967,-3.1979,-3.1982,-3.1985,-3.1988,-3.1914,-3.1981,-3.1981,-3.198,-3.198,-3.198,0,-3.1651,-3.1669,-3.17,-3.1735,-3.1762,-3.1758,-3.1786,-3.1808,-3.1841,-3.1865,-3.1892,-3.1932,-3.1964,-3.1983,-3.2015,-3.2035,-3.2035,-3.2043,-3.2042,-3.2046,-3.1992,-3.1983,-3.2043,-3.2043,-3.2043,-3.2042,-3.2042,-3.2042,-3.1686,-3.1729,-3.1738,-3.1791,-3.1808,-3.1846,-3.1862,-3.1884,-3.1904,-3.1949,-3.1977,-3.1989,-3.2011,-3.2045,-3.2075,-3.2079,-3.2092,-3.2101,-3.2105,-3.2055,-3.2049,-3.2043,-3.2034,-3.2104,-3.2104,-3.2156,-3.2157,-3.2157]}]]